[[{"header":{"parameterUnit":"m.s-1","parameterCategory":1,"la1":30.2991,"la2":30.254,"lo1":-89.0895,"lo2":-89.0444,"dy":0.0017,"dx":0.0017,"nx":28,"ny":28,"refTime":"2023-09-06T03:00:00:Z","depth":0,"parameterNumber":2,"parameterNumberName":"U-component_of_WINDS"},"data":[0,0,0,0,0,0,0,0,0,0,0,0,0,0,0,0,0,0,0,0,0,0,0,0,0,0,0,0,0,0,0,0,0,0,0,0,0,0,0,0,0,0,0,0,0,0,0,0,0,0,0,0,0,0,0,0,0,0,-3.1446,-3.1446,0,-3.1499,-3.15,-3.1501,-3.143,-3.1427,-3.1425,-3.1422,-3.1478,-3.1482,-3.1485,0,0,0,0,0,0,0,0,0,0,0,0,0,-3.1281,-3.1285,-3.1446,-3.1446,-3.1447,-3.1499,-3.15,-3.1501,-3.143,-3.1427,-3.1424,-3.1421,-3.1477,-3.1481,-3.1486,0,0,0,0,0,0,0,0,0,0,0,0,0,-3.1346,-3.1286,-3.1445,-3.1418,-3.1416,-3.1499,-3.15,-3.1501,-3.1431,-3.1427,-3.1423,-3.142,-3.1475,-3.1481,-3.1486,-3.1599,0,0,-3.1504,-3.1506,0,0,0,0,0,0,0,0,-3.1342,-3.1352,-3.1422,-3.142,-3.1418,-3.1454,-3.1462,-3.1534,-3.1432,-3.1426,-3.1422,-3.1418,-3.1473,-3.1479,-3.1497,-3.1601,-3.1604,-3.1504,-3.1508,-3.151,-3.1512,0,0,0,0,0,0,0,-3.1338,-3.1349,-3.1467,-3.1423,-3.1421,-3.1403,-3.1408,-3.1476,-3.147,-3.1426,-3.1421,-3.1428,-3.1471,-3.1492,-3.1498,-3.1604,-3.1504,-3.1509,-3.1513,-3.1515,-3.1801,-3.1805,0,0,0,0,0,0,-3.1337,-3.1346,-3.1465,-3.1468,-3.137,-3.1409,-3.1415,-3.1446,-3.1469,-3.1469,-3.1431,-3.1425,-3.1484,-3.1491,-3.15,-3.163,-3.151,-3.1516,-3.1519,-3.1797,-3.1802,-3.1807,0,0,0,0,0,0,-3.1333,-3.1348,-3.1463,-3.1406,-3.1419,-3.1416,-3.1452,-3.145,-3.147,-3.1473,-3.1472,-3.1453,-3.1481,-3.1492,-3.1574,-3.1631,-3.1518,-3.1524,-3.1792,-3.1799,-3.1804,-3.1895,0,0,0,0,0,0,-3.1329,-3.1347,-3.139,-3.1407,-3.1422,-3.1537,-3.1456,-3.1453,-3.148,-3.1472,-3.1493,-3.1493,-3.1479,-3.1566,-3.158,-3.1637,-3.1528,-3.1787,-3.1795,-3.1802,-3.1886,-3.1903,-3.1917,0,0,0,0,0,-3.1323,-3.1414,-3.1392,-3.1407,-3.1476,-3.154,-3.1549,-3.153,-3.1485,-3.1527,-3.153,-3.1493,-3.1624,-3.1575,-3.159,-3.165,-3.1783,-3.1793,-3.1802,-3.1879,-3.19,-3.1917,0,0,0,0,0,0,-3.1403,-3.1415,-3.1392,-3.1491,-3.1515,-3.1528,-3.1581,-3.1553,-3.159,-3.1581,-3.1556,-3.1562,-3.165,-3.1659,-3.1604,-3.1759,-3.1696,-3.1709,-3.175,-3.1769,-3.1784,-3.1779,-3.1533,0,0,0,0,0,-3.1432,-3.1484,-3.1492,-3.1578,-3.1591,-3.1585,-3.1612,-3.1595,-3.162,-3.1629,-3.1638,-3.1662,-3.1709,-3.174,-3.1783,-3.1888,-3.1891,-3.1937,-3.1953,-3.1965,-3.1976,-3.203,-3.205,-3.1837,-3.1837,-3.1837,0,0,-3.1493,-3.1506,-3.154,-3.1594,-3.1611,-3.1664,-3.1594,-3.1653,-3.1692,-3.1638,-3.1716,-3.1723,-3.1749,-3.1843,-3.1885,-3.1853,-3.2036,-3.1977,-3.1987,-3.1991,-3.2042,-3.2062,-3.208,-3.1843,-3.1842,-3.1841,0,0,-3.1629,-3.1646,-3.1718,-3.1736,-3.1762,-3.1757,-3.1775,-3.1793,-3.1795,-3.1873,-3.1833,-3.188,-3.1961,-3.198,-3.2001,-3.2145,-3.2112,-3.216,-3.224,-3.2294,-3.231,-3.2325,-3.2374,-3.2393,-3.2171,-3.2172,-3.2172,0,-3.1701,-3.1779,-3.1759,-3.1821,-3.1845,-3.18,-3.1872,-3.1891,-3.193,-3.1948,-3.1913,-3.2012,-3.2027,-3.2124,-3.2159,-3.2178,-3.2196,-3.2156,-3.231,-3.2324,-3.2338,-3.2384,-3.2403,-3.2177,-3.2177,-3.2176,-3.2175,0,-3.1865,-3.192,-3.1975,-3.2014,-3.2045,-3.2112,-3.2101,-3.2135,-3.2117,-3.2115,-3.2194,-3.2211,-3.2255,-3.2278,-3.226,-3.2372,-3.2351,-3.2314,-3.2249,-3.2364,-3.2407,-3.2425,-3.2185,-3.2183,-3.2181,-3.218,0,0,-3.2051,-3.2077,-3.2098,-3.2114,-3.214,-3.2182,-3.2247,-3.2291,-3.2319,-3.2349,-3.2401,-3.2471,-3.2436,-3.2459,-3.2444,-3.2491,-3.2602,-3.2447,-3.2447,-3.2473,-3.2724,-3.275,-3.2771,-3.2581,-3.2585,-3.2587,-3.2721,0,-3.2186,-3.2297,-3.2281,-3.2388,-3.2438,-3.2396,-3.2452,-3.2474,-3.2475,-3.2517,-3.2518,-3.2567,-3.2518,-3.2531,-3.2577,-3.2579,-3.2651,-3.257,-3.2629,-3.2631,-3.2621,-3.2794,-3.2822,-3.2947,-3.2738,-3.2741,-3.2743,0,-3.2357,-3.2391,-3.2503,-3.252,-3.2541,-3.2592,-3.2629,-3.2671,-3.2695,-3.2692,-3.2718,-3.2695,-3.2759,-3.2696,-3.2783,-3.2728,-3.2752,-3.2757,-3.2761,-3.2763,-3.2692,-3.2799,-3.2986,-3.3004,-3.277,-3.2767,-3.2765,0,-3.2478,-3.2553,-3.2629,-3.2645,-3.2667,-3.2704,-3.2715,-3.2735,-3.2762,-3.2796,-3.2812,-3.2854,-3.2876,-3.2908,-3.2896,-3.2851,-3.2986,-3.2921,-3.2984,-3.2984,-3.3012,-3.3009,-3.3203,-3.3032,-3.3032,-3.3031,-3.3031,0,-3.2628,-3.2698,-3.2683,-3.273,-3.2807,-3.2788,-3.2864,-3.287,-3.2889,-3.2935,-3.2903,-3.2947,-3.2929,-3.2973,-3.2964,-3.3037,-3.3048,-3.3047,-3.3043,-3.3048,-3.3048,-3.3061,-3.3051,-3.3036,-3.3035,-3.3034,-3.3033,0,-3.2775,-3.2769,-3.2849,-3.2864,-3.2869,-3.2924,-3.2937,-3.298,-3.2979,-3.3039,-3.3052,-3.305,-3.3099,-3.3091,-3.3146,-3.314,-3.323,-3.3218,-3.3222,-3.3218,-3.328,-3.3273,-3.3486,-3.3512,-3.3327,-3.3329,-3.333,0,-3.287,-3.2922,-3.2943,-3.2971,-3.2985,-3.3032,-3.3059,-3.3043,-3.3072,-3.3103,-3.3143,-3.319,-3.3225,-3.3307,-3.331,-3.3352,-3.3338,-3.341,-3.3344,-3.3347,-3.3336,-3.3332,-3.3336,-3.3422,-3.3424,-3.3426,-3.3427,0,-3.3037,-3.3032,-3.3072,-3.3111,-3.3144,-3.3175,-3.3202,-3.3227,-3.3213,-3.3248,-3.3298,-3.3326,-3.3382,-3.3428,-3.3467,-3.3479,-3.3451,-3.3449,-3.3465,-3.3469,-3.3468,-3.3467,-3.3254,-3.3443,-3.3441,-3.344,-3.3439,-3.3439,-3.3159,-3.3203,-3.3224,-3.3269,-3.3288,-3.3314,-3.3355,-3.3359,-3.34,-3.3444,-3.3432,-3.3489,-3.3511,-3.356,-3.3576,-3.362,-3.3593,-3.3617,-3.3623,-3.3628,-3.3634,-3.3464,-3.3627,-3.3627,-3.3627,-3.3626,-3.3626,0,-3.3323,-3.3334,-3.3376,-3.3415,-3.3451,-3.3422,-3.345,-3.3482,-3.3532,-3.3555,-3.3591,-3.3648,-3.3693,-3.37,-3.3742,-3.3776,-3.3764,-3.3787,-3.3783,-3.3786,-3.3657,-3.3638,-3.3796,-3.3796,-3.3796,-3.3796,-3.3796,-3.3796,-3.3412,-3.3484,-3.3481,-3.3561,-3.3572,-3.3627,-3.3645,-3.3669,-3.3687,-3.3752,-3.3788,-3.3793,-3.381,-3.3853,-3.3892,-3.3893,-3.3909,-3.3937,-3.3933,-3.3812,-3.3795,-3.3779,-3.376,-3.3942,-3.3942,-3.4058,-3.4059,-3.406]},{"header":{"parameterUnit":"m.s-1","parameterCategory":1,"la1":30.2991,"la2":30.254,"lo1":-89.0895,"lo2":-89.0444,"dy":0.0017,"dx":0.0017,"nx":28,"ny":28,"refTime":"2023-09-06T03:00:00:Z","depth":0,"parameterNumber":3,"parameterNumberName":"V-component_of_WINDS"},"data":[0,0,0,0,0,0,0,0,0,0,0,0,0,0,0,0,0,0,0,0,0,0,0,0,0,0,0,0,0,0,0,0,0,0,0,0,0,0,0,0,0,0,0,0,0,0,0,0,0,0,0,0,0,0,0,0,0,0,1.1335,1.1336,0,1.1455,1.1456,1.1458,1.1422,1.142,1.1417,1.1415,1.1541,1.1547,1.1552,0,0,0,0,0,0,0,0,0,0,0,0,0,1.1079,1.1084,1.1335,1.1336,1.1338,1.1455,1.1456,1.1458,1.1422,1.1419,1.1416,1.1414,1.1539,1.1546,1.1553,0,0,0,0,0,0,0,0,0,0,0,0,0,1.1194,1.1085,1.1335,1.1334,1.1335,1.1454,1.1456,1.1459,1.1423,1.1419,1.1416,1.1412,1.1537,1.1545,1.1554,1.1682,0,0,1.158,1.1584,0,0,0,0,0,0,0,0,1.1187,1.1203,1.1333,1.1334,1.1336,1.142,1.1413,1.1534,1.1424,1.139,1.1415,1.141,1.1504,1.1515,1.1546,1.1688,1.1693,1.1581,1.1586,1.159,1.1592,0,0,0,0,0,0,0,1.1179,1.1198,1.1382,1.1335,1.1337,1.1329,1.1341,1.1435,1.1467,1.1393,1.139,1.1405,1.1504,1.1538,1.1549,1.1695,1.158,1.1588,1.1593,1.1597,1.195,1.1954,0,0,0,0,0,0,1.117,1.1191,1.1379,1.1386,1.1251,1.1337,1.1351,1.1397,1.1465,1.1472,1.1408,1.1403,1.1525,1.1539,1.1553,1.1709,1.1589,1.1597,1.1602,1.1946,1.1951,1.1956,0,0,0,0,0,0,1.1164,1.1187,1.1374,1.1288,1.1311,1.1345,1.1397,1.1401,1.1434,1.1477,1.1483,1.1436,1.1523,1.1541,1.165,1.1712,1.1601,1.1609,1.1941,1.1948,1.1953,1.202,0,0,0,0,0,0,1.1157,1.1185,1.1233,1.129,1.1316,1.1468,1.1401,1.1406,1.1449,1.1443,1.1505,1.1512,1.1521,1.1638,1.1659,1.1722,1.1616,1.1936,1.1944,1.1951,1.2013,1.2028,1.2041,0,0,0,0,0,1.1148,1.1247,1.1236,1.1258,1.1376,1.1471,1.1487,1.1494,1.1454,1.1503,1.1531,1.151,1.1702,1.1649,1.1673,1.174,1.1932,1.1942,1.1951,1.2006,1.2025,1.2041,0,0,0,0,0,0,1.1198,1.1255,1.1242,1.1362,1.1412,1.1465,1.1527,1.1514,1.1577,1.1569,1.1577,1.1592,1.1704,1.1733,1.1673,1.1868,1.1811,1.1826,1.1845,1.1864,1.1878,1.1869,1.1623,0,0,0,0,0,1.1222,1.1294,1.134,1.1442,1.1467,1.1493,1.1535,1.1536,1.1589,1.161,1.1646,1.1699,1.1771,1.1819,1.1888,1.2017,1.2031,1.2075,1.2089,1.21,1.2113,1.2185,1.2206,1.1987,1.1987,1.1987,0,0,1.1274,1.1314,1.1359,1.1453,1.1491,1.1567,1.1511,1.1593,1.1649,1.1623,1.1728,1.1757,1.1817,1.1937,1.1991,1.1964,1.2177,1.2113,1.2122,1.2128,1.2197,1.2218,1.2236,1.1994,1.1993,1.1992,0,0,1.1408,1.1444,1.1534,1.1574,1.1634,1.1651,1.1672,1.1728,1.1746,1.1851,1.1834,1.1902,1.2026,1.207,1.2109,1.2261,1.2244,1.2283,1.2358,1.2429,1.2446,1.2461,1.2517,1.2536,1.2296,1.2296,1.2296,0,1.1465,1.1576,1.1582,1.1665,1.1708,1.1687,1.1779,1.1818,1.1898,1.1928,1.1896,1.2053,1.2092,1.2223,1.226,1.2291,1.2318,1.2276,1.2443,1.2458,1.2473,1.2526,1.2547,1.23,1.23,1.2299,1.2299,0,1.1645,1.1723,1.1788,1.1865,1.1915,1.2002,1.2022,1.2072,1.207,1.2091,1.22,1.2246,1.2325,1.2356,1.2355,1.2488,1.2469,1.244,1.2383,1.2498,1.2548,1.2568,1.2307,1.2305,1.2304,1.2303,0,0,1.1812,1.1891,1.1915,1.1951,1.2016,1.2077,1.2164,1.224,1.2284,1.234,1.2415,1.2521,1.2495,1.2539,1.2543,1.2604,1.2724,1.2568,1.257,1.2596,1.2875,1.2897,1.292,1.2713,1.2717,1.272,1.2871,0,1.1951,1.2103,1.2112,1.225,1.2323,1.2306,1.2382,1.2432,1.2454,1.252,1.2545,1.2621,1.258,1.2607,1.2667,1.2697,1.278,1.2686,1.2784,1.2788,1.277,1.2946,1.2969,1.3109,1.289,1.2893,1.2896,0,1.2134,1.2196,1.2342,1.2398,1.2429,1.2497,1.2569,1.2632,1.2688,1.27,1.275,1.2746,1.2837,1.2777,1.2904,1.284,1.2881,1.2902,1.2907,1.2917,1.2849,1.2962,1.3153,1.3175,1.2926,1.2924,1.2922,0,1.2243,1.2362,1.2465,1.2496,1.2564,1.2613,1.2644,1.2696,1.2742,1.2805,1.2835,1.2909,1.2949,1.3007,1.3023,1.2977,1.3151,1.3091,1.3165,1.3165,1.3202,1.32,1.3404,1.3228,1.3227,1.3227,1.3226,0,1.2398,1.2488,1.2515,1.2579,1.268,1.269,1.279,1.2818,1.2865,1.2935,1.2925,1.2991,1.3008,1.3078,1.3092,1.3196,1.3214,1.3228,1.3231,1.3229,1.3228,1.3257,1.3248,1.3232,1.3231,1.323,1.3229,0,1.2536,1.2558,1.2669,1.2725,1.2741,1.2814,1.2862,1.2924,1.2945,1.3034,1.3056,1.309,1.3172,1.3194,1.3292,1.3301,1.3425,1.3418,1.3405,1.3405,1.3478,1.3471,1.3708,1.374,1.3542,1.3544,1.3546,0,1.2634,1.2703,1.2767,1.2812,1.2845,1.2919,1.2966,1.2979,1.3028,1.3099,1.3153,1.3234,1.3299,1.3431,1.3466,1.3542,1.3537,1.3615,1.3548,1.3546,1.354,1.3536,1.3544,1.3628,1.363,1.3631,1.3633,0,1.2806,1.2814,1.2881,1.2953,1.301,1.3067,1.3122,1.3161,1.3182,1.3238,1.3322,1.3372,1.3473,1.3554,1.3631,1.3664,1.3653,1.3654,1.3675,1.3675,1.3665,1.3672,1.3441,1.3648,1.3647,1.3645,1.3645,1.3644,1.2928,1.2989,1.3044,1.312,1.3163,1.3215,1.3277,1.3306,1.3375,1.3458,1.3461,1.3553,1.3609,1.3711,1.3749,1.3822,1.3799,1.3829,1.3837,1.3845,1.3851,1.3653,1.3836,1.3835,1.3835,1.3835,1.3834,0,1.3101,1.3135,1.3205,1.3283,1.3343,1.3326,1.3387,1.3439,1.3519,1.3573,1.3637,1.3734,1.3813,1.3854,1.3933,1.3984,1.3981,1.4004,1.4001,1.4009,1.3867,1.3841,1.4005,1.4005,1.4005,1.4005,1.4005,1.4005,1.3197,1.3301,1.3315,1.3441,1.3475,1.3563,1.36,1.3649,1.3691,1.38,1.3865,1.3891,1.394,1.4023,1.4095,1.4106,1.4136,1.4162,1.417,1.4036,1.4019,1.4002,1.3978,1.4168,1.4169,1.4306,1.4307,1.4308]}]]